Hugo, OK

5:16 AM CDT on July 23, 2017 (GMT -0500)
Stamper Municipal

Weather History for KHHW - May, 2013

Change the Weather History Date:

Monday, May 27, 2013

  Actual Average Record
Temperature  
Mean Temperature 76 °F -  
Max Temperature 83 °F 83 °F 90 °F (2017)
Min Temperature 70 °F 62 °F 65 °F (2015)
Cooling Degree Days 12    
Growing Degree Days 26 (Base 50)    
Moisture  
Dew Point 67 °F    
Average Humidity 73    
Maximum Humidity 90    
Minimum Humidity 56    
Precipitation  
Precipitation 0.00 in - - ()
Sea Level Pressure  
Sea Level Pressure 29.93 in    
Wind  
Wind Speed 8 mph (South)    
Max Wind Speed 16 mph    
Max Gust Speed 23 mph    
Visibility 10 miles    
Events      
Averages and records for this station are not official NWS values.
T = Trace of Precipitation, MM = Missing Value Source: NWS Daily Summary

Daily Weather History Graph

Daily Weather History Graph

Search for Another Location

Airport or City:

Trip Planner

Search our weather history database for the weather conditions in past years. The results will help you decide how hot, cold, wet, or windy it might be!

Date:

Astronomy

May. 27, 2013 Rise Set
Actual Time 6:13 AM CDT 8:25 PM CDT
Civil Twilight 5:45 AM CDT 8:53 PM CDT
Nautical Twilight 5:10 AM CDT 9:28 PM CDT
Astronomical Twilight 4:32 AM CDT 10:06 PM CDT
Moon 11:08 PM CDT (5/27) 8:50 AM CDT (5/27)
Length of Visible Light 15h 08m
Length of Day
14h 11m
Waning Gibbous, 91% of the Moon is Illuminated
May 27
Waning Gibbous
May 31
Last Quarter
Jun 8
New
Jun 16
First Quarter
Jun 23
Full

Hourly Weather History & Observations

Time (CDT) Temp. Heat Index Dew Point Humidity Pressure Visibility Wind Dir Wind Speed Gust Speed Precip Events Conditions
12:15 AM 73.4 °F - 68.4 °F 84% 30.01 in 10.0 mi SSE 5.8 mph - N/A   Overcast
12:35 AM 73.0 °F - 68.4 °F 85% 30.01 in 10.0 mi SSE 5.8 mph - N/A   Overcast
12:55 AM 72.7 °F - 68.4 °F 86% 30.01 in 10.0 mi SSE 5.8 mph - N/A   Overcast
1:15 AM 72.7 °F - 68.5 °F 87% 30.00 in 10.0 mi SSE 8.1 mph - N/A   Mostly Cloudy
1:35 AM 72.5 °F - 68.5 °F 87% 29.99 in 10.0 mi SSE 5.8 mph - N/A   Mostly Cloudy
1:55 AM 72.5 °F - 68.9 °F 88% 29.99 in 10.0 mi South 8.1 mph - N/A   Mostly Cloudy
2:15 AM 72.5 °F - 68.9 °F 88% 29.98 in 10.0 mi South 9.2 mph - N/A   Scattered Clouds
2:35 AM 72.5 °F - 68.9 °F 88% 29.97 in 10.0 mi South 9.2 mph - N/A   Clear
2:55 AM 72.7 °F - 68.4 °F 86% 29.96 in 10.0 mi South 6.9 mph - N/A   Scattered Clouds
3:15 AM 72.7 °F - 68.2 °F 86% 29.96 in 10.0 mi South 8.1 mph 16.1 mph N/A   Clear
3:35 AM 72.5 °F - 68.0 °F 86% 29.95 in 10.0 mi South 9.2 mph - N/A   Clear
3:55 AM 72.1 °F - 67.6 °F 86% 29.95 in 10.0 mi South 6.9 mph - N/A   Clear
4:15 AM 72.1 °F - 67.5 °F 85% 29.95 in 10.0 mi South 8.1 mph - N/A   Clear
4:35 AM 72.0 °F - 67.5 °F 86% 29.96 in 10.0 mi South 4.6 mph - N/A   Clear
4:55 AM 71.6 °F - 67.3 °F 86% 29.96 in 10.0 mi South 8.1 mph - N/A   Clear
5:15 AM 71.2 °F - 67.3 °F 87% 29.96 in 10.0 mi South 8.1 mph - N/A   Clear
5:35 AM 70.7 °F - 67.3 °F 89% 29.96 in 10.0 mi South 6.9 mph - N/A   Clear
5:55 AM 70.3 °F - 67.1 °F 89% 29.96 in 10.0 mi South 6.9 mph - N/A   Clear
6:15 AM 70.3 °F - 67.1 °F 89% 29.96 in 10.0 mi South 5.8 mph - N/A   Clear
6:35 AM 70.2 °F - 67.1 °F 90% 29.97 in 10.0 mi South 6.9 mph - N/A   Clear
6:55 AM 70.3 °F - 67.1 °F 89% 29.98 in 10.0 mi South 5.8 mph - N/A   Scattered Clouds
7:15 AM 70.7 °F - 67.3 °F 89% 29.98 in 10.0 mi SSE 4.6 mph - N/A   Overcast
7:35 AM 71.1 °F - 67.5 °F 88% 29.98 in 10.0 mi SSE 6.9 mph - N/A   Overcast
7:55 AM 71.6 °F - 67.5 °F 87% 29.98 in 10.0 mi South 6.9 mph - N/A   Overcast
8:15 AM 71.8 °F - 67.3 °F 86% 29.99 in 10.0 mi South 9.2 mph - N/A   Overcast
8:35 AM 72.1 °F - 67.1 °F 84% 29.99 in 10.0 mi South 9.2 mph - N/A   Overcast
8:55 AM 72.9 °F - 67.1 °F 82% 29.99 in 10.0 mi South 9.2 mph - N/A   Overcast
9:15 AM 73.9 °F - 66.9 °F 79% 29.99 in 10.0 mi SSW 8.1 mph 17.3 mph N/A   Overcast
9:35 AM 74.3 °F - 66.6 °F 77% 29.99 in 10.0 mi SSW 6.9 mph 10.4 mph N/A   Overcast
9:55 AM 75.0 °F - 66.6 °F 75% 29.99 in 10.0 mi South 13.8 mph 18.4 mph N/A   Overcast
10:15 AM 76.1 °F - 66.6 °F 72% 29.98 in 10.0 mi South 8.1 mph 19.6 mph N/A   Overcast
10:35 AM 77.9 °F - 66.7 °F 68% 29.99 in 10.0 mi SSW 13.8 mph 18.4 mph N/A   Overcast
10:55 AM 77.5 °F - 66.4 °F 68% 29.99 in 10.0 mi SSW 9.2 mph 18.4 mph N/A   Overcast
11:15 AM 77.5 °F - 66.9 °F 70% 29.98 in 10.0 mi South 12.7 mph 18.4 mph N/A   Mostly Cloudy
11:35 AM 78.4 °F - 67.1 °F 68% 29.98 in 10.0 mi SSW 10.4 mph 19.6 mph N/A   Mostly Cloudy
11:55 AM 79.2 °F - 67.1 °F 66% 29.98 in 10.0 mi South 13.8 mph 19.6 mph N/A   Mostly Cloudy
12:15 PM 80.1 °F 82.1 °F 66.2 °F 62% 29.97 in 10.0 mi SSW 13.8 mph 23.0 mph N/A   Mostly Cloudy
12:35 PM 80.6 °F 82.8 °F 66.4 °F 62% 29.96 in 10.0 mi South 9.2 mph 19.6 mph N/A   Mostly Cloudy
12:55 PM 81.3 °F 83.6 °F 66.6 °F 61% 29.96 in 10.0 mi South 16.1 mph 23.0 mph N/A   Mostly Cloudy
1:15 PM 81.5 °F 83.6 °F 66.0 °F 59% 29.96 in 10.0 mi South 13.8 mph 20.7 mph N/A   Mostly Cloudy
1:35 PM 81.5 °F 83.6 °F 66.0 °F 59% 29.95 in 10.0 mi SSW 9.2 mph 21.9 mph N/A   Mostly Cloudy
1:55 PM 81.5 °F 83.4 °F 65.5 °F 58% 29.95 in 10.0 mi South 11.5 mph 19.6 mph N/A   Mostly Cloudy
2:15 PM 81.9 °F 84.1 °F 66.0 °F 59% 29.94 in 10.0 mi SSW 8.1 mph 20.7 mph N/A   Mostly Cloudy
2:35 PM 82.6 °F 84.9 °F 66.4 °F 58% 29.94 in 10.0 mi South 11.5 mph 20.7 mph N/A   Overcast
2:55 PM 82.6 °F 84.9 °F 66.6 °F 58% 29.93 in 10.0 mi South 13.8 mph 19.6 mph N/A   Overcast
3:15 PM 82.2 °F 84.6 °F 66.4 °F 59% 29.92 in 10.0 mi South 11.5 mph 20.7 mph N/A   Overcast
3:35 PM 82.0 °F 84.1 °F 65.8 °F 58% 29.92 in 10.0 mi South 10.4 mph 18.4 mph N/A   Mostly Cloudy
3:55 PM 82.2 °F 84.2 °F 65.7 °F 57% 29.90 in 10.0 mi South 11.5 mph 21.9 mph N/A   Mostly Cloudy
4:15 PM 83.5 °F 85.7 °F 66.2 °F 56% 29.90 in 10.0 mi South 13.8 mph 19.6 mph N/A   Mostly Cloudy
4:35 PM 83.8 °F 86.3 °F 66.6 °F 56% 29.89 in 10.0 mi South 8.1 mph 18.4 mph N/A   Scattered Clouds
4:55 PM 83.7 °F 86.0 °F 66.2 °F 56% 29.88 in 10.0 mi South 13.8 mph 19.6 mph N/A   Mostly Cloudy
5:15 PM 82.8 °F 84.9 °F 66.0 °F 57% 29.88 in 10.0 mi SSW 8.1 mph 17.3 mph N/A   Overcast
5:35 PM 83.1 °F 85.7 °F 66.9 °F 58% 29.87 in 10.0 mi South 6.9 mph - N/A   Overcast
5:55 PM 83.7 °F 86.2 °F 66.7 °F 57% 29.86 in 10.0 mi South 10.4 mph 18.4 mph N/A   Overcast
6:15 PM 83.3 °F 85.9 °F 67.1 °F 58% 29.85 in 10.0 mi South 9.2 mph - N/A   Scattered Clouds
6:35 PM 82.9 °F 85.2 °F 66.4 °F 57% 29.84 in 10.0 mi South 11.5 mph 19.6 mph N/A   Clear
6:55 PM 82.6 °F 84.9 °F 66.2 °F 58% 29.83 in 10.0 mi South 9.2 mph 17.3 mph N/A   Clear
7:15 PM 81.9 °F 84.2 °F 66.9 °F 60% 29.83 in 10.0 mi South 8.1 mph 16.1 mph N/A   Clear
7:35 PM 81.1 °F 83.4 °F 66.7 °F 61% 29.83 in 10.0 mi South 9.2 mph - N/A   Scattered Clouds
7:55 PM 80.1 °F 82.1 °F 66.2 °F 62% 29.83 in 10.0 mi South 8.1 mph - N/A   Clear
8:15 PM 79.2 °F - 65.8 °F 64% 29.84 in 10.0 mi SSE 5.8 mph - N/A   Clear
8:35 PM 78.4 °F - 65.5 °F 64% 29.85 in 10.0 mi SSE 5.8 mph - N/A   Clear
8:55 PM 77.5 °F - 65.5 °F 66% 29.85 in 10.0 mi SSE 4.6 mph - N/A   Clear
9:15 PM 76.6 °F - 65.7 °F 69% 29.85 in 10.0 mi SSE 4.6 mph - N/A   Clear
9:35 PM 76.1 °F - 65.8 °F 70% 29.86 in 10.0 mi SSE 3.5 mph - N/A   Clear
9:55 PM 75.9 °F - 66.4 °F 72% 29.86 in 10.0 mi SSE 6.9 mph - N/A   Clear
10:15 PM 76.1 °F - 66.2 °F 71% 29.87 in 10.0 mi SSE 4.6 mph - N/A   Clear
10:35 PM 75.4 °F - 66.2 °F 73% 29.88 in 10.0 mi SSE 6.9 mph - N/A   Clear
10:55 PM 75.4 °F - 65.8 °F 72% 29.88 in 10.0 mi SSE 8.1 mph - N/A   Clear
11:15 PM 75.6 °F - 65.5 °F 71% 29.88 in 10.0 mi SSE 8.1 mph - N/A   Clear
11:35 PM 75.0 °F - 65.3 °F 72% 29.88 in 10.0 mi SSE 5.8 mph - N/A   Clear
11:55 PM 75.4 °F - 65.3 °F 71% 29.88 in 10.0 mi SSE 11.5 mph - N/A   Scattered Clouds